Location: Barcelona
(41.3830°N, 2.1830°E)
Time: 12:40:14
(UTC+02:00)

ISS - Pass Details

Date: 24 May 2020
Orbit: 417 x 419 km, 51.6° (Epoch: 31 May)

Event Time Altitude Azimuth Distance (km) Brightness Sun altitude
Rises 23:06:24 0° 305° (NW) 2,367 1.5 -17.2°
Reaches altitude 10° 23:09:09 10° 329° (NNW) 1,503 0.3 -17.6°
Maximum altitude 23:11:14 15° 8° (N) 1,221 -0.9 -17.8°
Drops below altitude 10° 23:13:19 10° 46° (NE) 1,502 -0.9 -18.1°
Enters shadow 23:14:45 - 61° (ENE) 1,911 -0.5 -18.2°
